TITAN 3C TRANSTAGE DEB, 27879

Orbit data source: Space-Track

TITAN 3C TRANSTAGE DEB, 27879 is space debris in HEO originally from a launch on Tue, 21 Dec 1965 UTC launched from the Air Force Eastern Test Range (AFETR). Debris objects in space refer to the collection of defunct objects orbiting the Earth. Examples of debris include non-operational satellites, rocket bodies, and fragments generated from explosions, collisions, or faulty payload assembly.

Loading next visibility...
Identifier
27879, 1965-108BQ
Orbit
HEO
Country
Flag of USUS
Related business
Manufacturer
Unknown
Mission
Spacecraft
Bus & Motor
Unknown
Mass
Unknown
Launch date (UTC)
1965-12-21 (61 years ago)
Launch vehicle
Unknown
Launch site
Air Force Eastern Test Range (AFETR)
Object type
Payload
Rocket body
Debris
Shape & HBR
Unknown shape, 0.2 m
Radar Cross Section
Medium (>0.1 m² and <1 m²)

Expand to show TLE details & history
Last TLE update: 1 year ago

TLE from 1 year ago
0 TITAN 3C TRANSTAGE DEB
1 27879U 65108BQ  25168.42769550 -.00000213  00000-0 -42390-2 0  9991
2 27879  26.8713  69.6387 6765921 220.9809 353.6539  2.60602678110190
Epoch: 2025-06-17T10:15Z
TLE epoch observation values (Epoch: 2025-06-17T10:15:52.891Z)
Latitude
0.08309°
Longitude
-170.3912°
Altitude
1,621.138 km
Speed
9.044 km/s
True Right ascension
16h 38m 00s
True Declination
0° 04' 58"
Sunlit
Object was in full shadow at epoch
Visualization orbit readout
Latitude
Unknown
Longitude
Unknown
Altitude
Unknown
Speed
Unknown
Apparent Right ascension
Unknown
Apparent Declination
Unknown
Sunlit
N/A
Visualization observer readout
Local Sidereal Time
22:14:51
Azimuth
Unknown
Elevation
Unknown
Doppler factor
Unknown
Orbital elements
Apogee altitude
31,025.203 km
Perigee altitude
836.817 km
Semi-major axis
22,309.147 km
Eccentricity
0.67659
Inclination
26.8713°
RAAN
69.6387°
Arg. of periapsis
220.9809°
True anomaly
318.47178°
Mean anomaly
353.6539°
Eccentric anomaly
341.09155°
Mean motion
0.65136 °/min
Orbital period
552.69 mins
BSTAR
-0.004239
Loading maneuver chart data...
Computing Atmospheric mass density...

Documentation

Showing up to 5 results
|